Location: Sevilla
(37.3933°N, 5.9839°W)
Time: 05:52:18
(UTC+02:00)

Transit 2A Rocket - Pass Details

Date: 26 June 2024
Orbit: 582 x 910 km, 66.7° (Epoch: 15 July)

Event Time Altitude Azimuth Distance (km) Brightness Sun altitude
Rises 20:04:35 0° 167° (SSE) 3,021 7.8 18.2°
Reaches altitude 10° 20:07:22 10° 150° (SSE) 2,171 7.0 17.6°
Maximum altitude 20:10:52 20° 104° (ESE) 1,692 6.3 17.0°
Drops below altitude 10° 20:14:37 10° 60° (ENE) 2,339 7.2 16.3°
Sets 20:17:44 0° 44° (NE) 3,338 8.1 15.7°
